Location: Derndorf
(48.1807°N, 10.4707°E)
Time: 04:48:44
(UTC+00:00)

Daily predictions for brighter satellites

Satellite Brightness Start Highest point End
(mag) Time Altitude Azimuth Time Altitude Azimuth Time Altitude Azimuth
ATLAS 3B R/B 4.5 02:42:27 26° NNE 02:42:27 26° NNE 02:46:41 10° NE
Cosmos 1980 Rocket 3.4 03:16:50 38° ENE 03:16:50 38° ENE 03:21:40 10° ESE
USA 59 Rocket 2.8 03:21:19 13° ENE 03:21:19 13° ENE 03:22:02 10° ENE
USA 234 3.9 03:30:53 10° ENE 03:36:53 42° N 03:36:53 42° N
USA 238 DEB 4.1 03:44:19 55° SSW 03:44:19 55° SSW 03:51:13 10° SSE
USA 238 4.1 03:44:22 56° SSW 03:44:22 56° SSW 03:51:20 10° SSE
COSMOS 2455 3.8 03:45:28 33° N 03:47:16 41° NE 03:52:56 10° ESE
Cosmos 540 Rocket 4.1 03:46:39 50° SE 03:47:19 54° ESE 03:52:20 10° NNE
RESURS DK-1 4.4 04:02:19 21° NNE 04:02:19 21° NNE 04:03:42 10° NNE
Cosmos 1697 Rocket 3.7 04:02:26 33° S 04:02:26 33° S 04:05:37 10° S
Meteor 2-12 Rocket 4.4 03:58:30 10° S 04:04:38 86° E 04:10:46 10° N
Tiangong 0.7 04:07:02 17° SE 04:07:02 17° SE 04:08:07 10° ESE
ATLAS 5 CENTAUR R/B 3.7 04:08:33 12° NE 04:08:33 12° NE 04:08:54 10° NE
COSMO-SKYMED 1 3.8 04:02:36 10° SE 04:06:24 37° ENE 04:08:03 26° NNE
IRS-1D 4.3 04:02:02 10° NNE 04:06:53 50° E 04:11:47 10° S
Cosmos 2322 Rocket 4.4 04:04:15 10° N 04:08:01 18° NE 04:11:55 10° E
Cosmos 1898 Rocket 4.3 04:12:41 24° N 04:15:34 48° ENE 04:20:38 10° SE
CZ-3 R/B 4.4 04:11:20 22° WSW 04:17:02 25° SW 04:24:55 10° SSE
SJ-11-01 4.2 04:13:27 10° NNE 04:18:12 86° ESE 04:22:53 10° SSW
Cosmos 909 Rocket 4.5 04:21:22 45° W 04:23:06 53° NW 04:29:40 10° NNE
NOSS 3-4 (A) 3.5 04:25:05 45° NW 04:25:05 45° NW 04:30:48 10° NE
NOSS 3-4 (C) 3.5 04:25:12 45° NW 04:25:12 45° NW 04:30:58 10° NE
Aureole 1 Rocket 4.3 04:22:40 20° NNW 04:27:40 83° ENE 04:35:10 10° SSE
Cosmos 468 Rocket 4.1 04:24:21 10° SSW 04:29:35 77° ESE 04:34:50 10° NNE
FengYun 1-2 T 4.1 04:25:37 10° NNE 04:31:17 75° WNW 04:36:55 10° SSW
ATLAS 3B R/B 4.3 04:29:41 20° NNW 04:33:03 26° N 04:39:22 10° ENE
SL-16 R/B 3.5 04:28:46 14° NNW 04:33:13 36° NE 04:38:24 10° ESE
CZ-2C R/B 4.2 04:29:30 10° N 04:30:59 18° N 04:30:59 18° N
Cosmos 1833 Rocket 3.4 04:35:01 35° NW 04:35:01 35° NW 04:39:33 10° NNE
BREEZE-M DEB (TANK) 3.7 04:34:56 48° S 04:35:17 51° SSE 04:37:42 10° E
DNEPR-1 R/B 4.3 04:36:32 37° NNW 04:36:32 37° NNW 04:39:42 10° NNE
Cosmos 1933 3.3 04:34:42 41° N 04:35:55 71° E 04:39:43 10° SSE
Cosmos 2082 Rocket 2.5 04:30:29 10° SSW 04:36:02 65° ESE 04:41:36 10° NNE
CZ-4 R/B 3.7 04:33:27 10° NNE 04:38:10 83° ESE 04:42:46 10° SSW
Cosmos 1937 Rocket 3.9 04:41:20 17° NNW 04:45:19 61° ENE 04:50:22 10° SE
Cosmos 1763 Rocket 3.7 04:45:08 42° W 04:46:02 46° WNW 04:51:05 10° NNE
Cosmos 2279 Rocket 4.2 04:42:44 22° NNW 04:46:22 44° W 04:52:14 10° SSW
Cosmos 1536 Rocket 3.6 04:51:04 10° SSW 04:55:25 55° WNW 04:59:48 10° N
Cosmos 2369 3.6 04:54:22 23° NW 04:58:04 72° WSW 05:03:42 10° SSE
Cosmos 1980 Rocket 2.6 04:58:38 31° WNW 05:00:29 40° WSW 05:05:39 10° S
BREEZE-M DEB (TANK) 2.1 05:00:28 65° W 05:00:47 85° NNW 05:04:47 10° ENE
Cosmos 372 Rocket 3.9 04:58:24 24° NW 05:01:23 62° WSW 05:06:22 10° S
NOSS 2-1 (D) 3.1 05:01:28 40° NW 05:02:43 84° SW 05:07:16 10° SE
SL-24 R/B - RUBIN 2 4.1 05:04:14 33° W 05:05:05 37° WSW 05:09:05 10° S
NOSS 2-1 (E) 3.2 05:03:47 34° NW 05:05:16 82° NE 05:09:46 10° SE
SKYMED 2 4.0 05:01:36 10° SSW 05:05:39 38° W 05:06:55 31° WNW
Cosmos 2098 Rocket 4.3 05:03:44 22° NW 05:06:35 35° W 05:11:47 10° SSW
NOSS 3-1 (A) 4.5 05:02:31 16° NNW 05:08:09 56° NE 05:16:34 10° ESE
USA 59 Rocket -0.3 05:07:01 36° NW 05:08:23 69° SW 05:13:03 10° SSE
IGS 5A 4.0 05:04:32 10° NNE 05:08:30 57° E 05:12:25 10° S
Cosmos 2058 Rocket 3.8 05:05:48 10° N 05:10:12 55° ENE 05:14:32 10° SSE
Helios 1A Rocket 2.8 05:08:09 10° S 05:11:19 40° W 05:11:50 37° WNW
SL-4 R/B 1.9 05:11:52 37° NW 05:12:35 43° N 05:15:39 10° ENE
Cosmos 2333 Rocket 2.9 05:09:03 10° NNW 05:14:43 53° NE 05:20:20 10° SE
USA 234 3.8 05:12:59 10° E 05:19:14 50° NNE 05:24:13 17° NW
Cosmos 2026 Rocket 3.9 05:16:12 10° S 05:22:16 90° WSW 05:28:23 10° N
NOSS 2-1 (C) 3.5 05:25:13 24° WNW 05:27:11 55° SW 05:31:42 10° SSE
Cosmos 540 Rocket 4.4 05:26:29 17° W 05:29:07 26° NW 05:33:24 10° N
Meteor 1-26 Rocket 4.2 05:26:33 10° NNW 05:32:03 89° ENE 05:37:40 10° S
Cosmos 2360 Rocket 3.0 05:27:40 10° NNW 05:33:10 50° NE 05:38:36 10° SE
COSMOS 2455 3.2 05:28:38 15° NW 05:33:17 46° WSW 05:38:59 10° S
Meteor 2-3 Rocket 3.7 05:30:51 10° SSW 05:36:33 64° WNW 05:42:15 10° N
Cosmos 1606 Rocket 4.4 05:33:26 11° NNW 05:37:02 30° W 05:40:54 10° SSW
RESURS DK-1 4.0 05:37:39 15° NW 05:37:40 15° NW 05:40:01 10° N
Cosmos 1553 Rocket 4.3 05:32:29 10° N 05:38:52 73° E 05:45:16 10° SSE
Cosmos-2242 2.9 05:35:51 10° NNW 05:40:07 81° W 05:44:19 10° S
Cosmos 1092 Rocket 4.0 05:35:23 10° SSW 05:41:40 75° W 05:47:57 10° N
COSMO-SKYMED 1 3.6 05:38:31 10° SSW 05:41:49 23° W 05:44:22 14° NW
Tiangong 0.0 05:39:26 10° WSW 05:41:54 20° SSW 05:44:22 10° SE
Cosmos 1346 Rocket 3.5 05:41:17 10° SW 05:44:28 26° WNW 05:47:39 10° N
Cosmos 841 Rocket 3.6 05:39:40 10° SW 05:44:46 53° WNW 05:49:56 10° NNE
IRS-1D 4.4 05:41:44 10° N 05:45:45 25° WNW 05:49:47 10° WSW
ATLAS 5 CENTAUR R/B 2.8 05:48:03 12° NW 05:48:46 13° NNW 05:50:26 10° N
SL-08 R/B 4.5 05:46:27 10° SE 05:50:44 42° ENE 05:55:07 10° N
Cosmos 2322 Rocket 2.4 05:47:19 10° NNW 05:53:04 75° ENE 05:58:44 10° SSE
Okean 1 3.0 05:49:47 10° NNW 05:53:20 65° W 05:56:51 10° S
Cosmos 2219 Rocket 3.2 05:48:37 10° NNW 05:54:04 45° NE 05:59:28 10° SE
NOSS 3-1 (C) 4.3 05:47:54 10° NW 05:54:52 57° WSW 06:03:30 10° SSE
Cosmos 1758 Rocket 4.2 05:50:45 10° S 05:55:07 61° E 05:59:29 10° NNE
Cosmos 1743 4.0 05:53:38 10° SSE 05:56:39 37° E 05:59:41 10° NNE
COSMOS 2406 3.3 05:54:27 10° SW 06:00:01 57° WNW 06:05:38 10° NNE
SJ-12 3.9 05:57:42 10° NNE 06:01:32 80° ESE 06:05:20 10° S
Cosmos 1484 Rocket 3.6 06:02:36 10° NNW 06:05:24 23° WNW 06:08:10 10° WSW
Meteor 2-2 Rocket 4.5 06:00:46 10° NNW 06:06:14 51° W 06:11:46 10° SSW
SAR-Lupe-4 3.5 06:04:14 10° NNE 06:07:49 82° WNW 06:11:21 10° SSW
Cosmos 1733 1.7 06:05:51 10° S 06:07:53 77° E 06:09:57 10° NNE
IRS-1C 4.3 06:05:03 10° NNE 06:10:24 84° ESE 06:15:44 10° SSW
COSMOS 2428 4.4 06:05:42 10° NNW 06:10:28 27° NE 06:15:14 10° ESE
SMAP 3.1 06:07:26 10° N 06:12:03 62° WNW 06:16:38 10° SSW
SAR-Lupe-1 4.0 06:09:17 10° NNE 06:12:55 83° WNW 06:16:32 10° SSW
SL-16 R/B 2.6 06:12:02 10° NW 06:17:24 44° WSW 06:22:44 10° S
IRIDIUM 104 4.4 06:12:56 10° SSW 06:18:04 58° W 06:23:15 10° N
Landsat 7 3.8 06:14:25 10° N 06:19:02 65° WNW 06:23:38 10° SSW
Cosmos 2082 Rocket 3.1 06:15:51 10° WSW 06:20:33 27° NW 06:25:18 10° N
Cosmos 1626 Rocket 3.6 06:16:17 10° SSW 06:20:41 63° WNW 06:25:05 10° N
ARIANE 5 R/B 2.6 06:15:35 10° NNE 06:20:47 77° WNW 06:26:00 10° SSW
